Latest:
 RWRKY |
  [top]

000
ASUS43 KLMK 301302
RWRKY
KENTUCKY REGIONAL WEATHER ROUNDUP
NATIONAL WEATHER SERVICE LOUISVILLE KY
900 AM EDT MON MAY 30 2016

NOTE "FAIR" INDICATES FEW OR NO CLOUDS BELOW 12,000 FEET
WITH NO SIGNIFICANT WEATHER AND/OR OBSTRUCTIONS TO VISIBILITY.

KYZ001>023-026-027-061>063-070>075-301400-
WESTERN AND SOUTH CENTRAL KENTUCKY

CITY           SKY/WX    TMP DP  RH WIND       PRES   REMARKS
PADUCAH        SUNNY     74  63  68 CALM      30.07R
HENDERSON        N/A     72  61  68 NE5       30.05S VSB 1/4
OWENSBORO      SUNNY     74  64  70 NE5       30.07S
HOPKINSVILLE   NOT AVBL
BOWLING GREEN  SUNNY     76  64  66 VRB3      30.06S
GLASGOW        NOT AVBL
$$

KYZ024-025-028>034-038-045-046-053-301400-
NORTH CENTRAL KENTUCKY

CITY           SKY/WX    TMP DP  RH WIND       PRES   REMARKS
LOUISVILLE/SDF MOSUNNY   76  61  59 N5        30.05S
LOUISVILLE/LOU MOSUNNY   74  61  63 N5        30.06S
FORT KNOX      SUNNY     71  62  73 NW3       30.05F
$$

KYZ035>037-039>044-047>052-055>060-089>105-301400-
NORTHEAST KENTUCKY

CITY           SKY/WX    TMP DP  RH WIND       PRES   REMARKS
LEXINGTON      SUNNY     72  65  78 W3        30.06S
COVINGTON      MOSUNNY   73  66  78 N5        30.06R
FRANKFORT      SUNNY     73  64  73 N3        30.05R
$$

KYZ054-064>069-076>088-106>120-301400-
SOUTHEAST KENTUCKY

CITY           SKY/WX    TMP DP  RH WIND       PRES   REMARKS
JACKSON        SUNNY     70  63  78 CALM      30.07R
LONDON         CLOUDY    69  64  84 SW7       30.07R
SOMERSET       NOT AVBL
MIDDLESBORO    CLOUDY    63  63 100 CALM      30.09S
MONTICELLO     SUNNY     72  66  81 N8        30.09R
$$






000
ASUS43 KLMK 301210
RWRKY
KENTUCKY REGIONAL WEATHER ROUNDUP
NATIONAL WEATHER SERVICE LOUISVILLE KY
800 AM EDT MON MAY 30 2016

NOTE "FAIR" INDICATES FEW OR NO CLOUDS BELOW 12,000 FEET
WITH NO SIGNIFICANT WEATHER AND/OR OBSTRUCTIONS TO VISIBILITY.

KYZ001>023-026-027-061>063-070>075-301300-
WESTERN AND SOUTH CENTRAL KENTUCKY

CITY           SKY/WX    TMP DP  RH WIND       PRES   REMARKS
PADUCAH        SUNNY     66  62  87 CALM      30.06R
HENDERSON      SUNNY     66  61  82 CALM      30.06R
OWENSBORO      SUNNY     69  67  93 CALM      30.07R
HOPKINSVILLE   SUNNY     69  64  84 CALM      30.06R
BOWLING GREEN  CLOUDY    71  64  78 CALM      30.06R
GLASGOW        SUNNY     66  66 100 CALM      30.07R
$$

KYZ024-025-028>034-038-045-046-053-301300-
NORTH CENTRAL KENTUCKY

CITY           SKY/WX    TMP DP  RH WIND       PRES   REMARKS
LOUISVILLE/SDF MOSUNNY   72  62  71 CALM      30.05R
LOUISVILLE/LOU SUNNY     69  62  78 CALM      30.06R
FORT KNOX      SUNNY     68  64  87 NW5       30.06R
$$

KYZ035>037-039>044-047>052-055>060-089>105-301300-
NORTHEAST KENTUCKY

CITY           SKY/WX    TMP DP  RH WIND       PRES   REMARKS
LEXINGTON      MOSUNNY   67  64  90 CALM      30.06R FOG
COVINGTON      MOSUNNY   69  65  86 CALM      30.05S
FRANKFORT      SUNNY     68  63  84 CALM      30.04R
$$

KYZ054-064>069-076>088-106>120-301300-
SOUTHEAST KENTUCKY

CITY           SKY/WX    TMP DP  RH WIND       PRES   REMARKS
JACKSON        PTSUNNY   66  63  90 S3        30.06R
LONDON         PTSUNNY   69  63  81 CALM      30.06R
SOMERSET       MOSUNNY   66  66 100 CALM      30.07S
MIDDLESBORO    CLOUDY    62  62 100 CALM      30.08F
MONTICELLO     NOT AVBL
$$






000
ASUS43 KLMK 301202
RWRKY
KENTUCKY REGIONAL WEATHER ROUNDUP
NATIONAL WEATHER SERVICE LOUISVILLE KY
800 AM EDT MON MAY 30 2016

NOTE "FAIR" INDICATES FEW OR NO CLOUDS BELOW 12,000 FEET
WITH NO SIGNIFICANT WEATHER AND/OR OBSTRUCTIONS TO VISIBILITY.

KYZ001>023-026-027-061>063-070>075-301300-
WESTERN AND SOUTH CENTRAL KENTUCKY

CITY           SKY/WX    TMP DP  RH WIND       PRES   REMARKS
PADUCAH        SUNNY     66  62  87 CALM      30.06R
HENDERSON      SUNNY     66  61  82 CALM      30.06R
OWENSBORO      SUNNY     69  67  93 CALM      30.07R
HOPKINSVILLE   NOT AVBL
BOWLING GREEN  CLOUDY    71  64  78 CALM      30.06R
GLASGOW        NOT AVBL
$$

KYZ024-025-028>034-038-045-046-053-301300-
NORTH CENTRAL KENTUCKY

CITY           SKY/WX    TMP DP  RH WIND       PRES   REMARKS
LOUISVILLE/SDF MOSUNNY   72  62  71 CALM      30.05R
LOUISVILLE/LOU SUNNY     69  62  78 CALM      30.06R
FORT KNOX      SUNNY     68  64  87 NW5       30.06R
$$

KYZ035>037-039>044-047>052-055>060-089>105-301300-
NORTHEAST KENTUCKY

CITY           SKY/WX    TMP DP  RH WIND       PRES   REMARKS
LEXINGTON      MOSUNNY   67  64  90 CALM      30.06R FOG
COVINGTON      MOSUNNY   69  65  86 CALM      30.05S
FRANKFORT      SUNNY     68  63  84 CALM      30.04R
$$

KYZ054-064>069-076>088-106>120-301300-
SOUTHEAST KENTUCKY

CITY           SKY/WX    TMP DP  RH WIND       PRES   REMARKS
JACKSON        MOSUNNY   66  63  90 CALM      30.06R
LONDON         PTSUNNY   69  63  81 CALM      30.06R
SOMERSET       NOT AVBL
MIDDLESBORO    NOT AVBL
MONTICELLO     NOT AVBL
$$






000
ASUS43 KLMK 301110
RWRKY
KENTUCKY REGIONAL WEATHER ROUNDUP
NATIONAL WEATHER SERVICE LOUISVILLE KY
700 AM EDT MON MAY 30 2016

NOTE "FAIR" INDICATES FEW OR NO CLOUDS BELOW 12,000 FEET
WITH NO SIGNIFICANT WEATHER AND/OR OBSTRUCTIONS TO VISIBILITY.

KYZ001>023-026-027-061>063-070>075-301200-
WESTERN AND SOUTH CENTRAL KENTUCKY

CITY           SKY/WX    TMP DP  RH WIND       PRES   REMARKS
PADUCAH        CLEAR     62  60  93 CALM      30.05R
HENDERSON      CLEAR     63  57  82 CALM      30.05S
OWENSBORO      CLEAR     65  65 100 NW3       30.06R
HOPKINSVILLE   CLEAR     66  63  89 N1        30.05R
BOWLING GREEN  PTCLDY    65  63  93 CALM      30.05R
GLASGOW        CLEAR     62  62 100 CALM      30.05R FOG
$$

KYZ024-025-028>034-038-045-046-053-301200-
NORTH CENTRAL KENTUCKY

CITY           SKY/WX    TMP DP  RH WIND       PRES   REMARKS
LOUISVILLE/SDF PTCLDY    69  61  75 CALM      30.04R
LOUISVILLE/LOU PTCLDY    66  61  84 CALM      30.05R
FORT KNOX      CLEAR     61  60  95 NW2       30.03S
$$

KYZ035>037-039>044-047>052-055>060-089>105-301200-
NORTHEAST KENTUCKY

CITY           SKY/WX    TMP DP  RH WIND       PRES   REMARKS
LEXINGTON      PTCLDY    65  62  90 CALM      30.05S FOG
COVINGTON      MOCLDY    63  63 100 CALM      30.05R
FRANKFORT      CLEAR     62  59  90 CALM      30.03S FOG
$$

KYZ054-064>069-076>088-106>120-301200-
SOUTHEAST KENTUCKY

CITY           SKY/WX    TMP DP  RH WIND       PRES   REMARKS
JACKSON        MOCLDY    65  62  90 VRB3      30.05R
LONDON         MOCLDY    66  62  87 CALM      30.05F
SOMERSET       PTCLDY    63  63 100 CALM      30.07S FOG
MIDDLESBORO    CLOUDY    61  61 100 CALM      30.08S FOG
MONTICELLO     PTSUNNY   64  64 100 CALM      30.07S FOG
$$






000
ASUS43 KLMK 300910
RWRKY
KENTUCKY REGIONAL WEATHER ROUNDUP
NATIONAL WEATHER SERVICE LOUISVILLE KY
500 AM EDT MON MAY 30 2016

NOTE "FAIR" INDICATES FEW OR NO CLOUDS BELOW 12,000 FEET
WITH NO SIGNIFICANT WEATHER AND/OR OBSTRUCTIONS TO VISIBILITY.

KYZ001>023-026-027-061>063-070>075-301000-
WESTERN AND SOUTH CENTRAL KENTUCKY

CITY           SKY/WX    TMP DP  RH WIND       PRES   REMARKS
PADUCAH        CLEAR     62  60  93 CALM      30.03F
HENDERSON      CLEAR     64  59  82 CALM      30.03S
OWENSBORO      CLEAR     66  66 100 CALM      30.05R
HOPKINSVILLE   CLEAR     67  64  91 N3        30.04R
BOWLING GREEN  CLEAR     67  64  90 CALM      30.04S
GLASGOW        MOCLDY    65  65 100 CALM      30.04S
$$

KYZ024-025-028>034-038-045-046-053-301000-
NORTH CENTRAL KENTUCKY

CITY           SKY/WX    TMP DP  RH WIND       PRES   REMARKS
LOUISVILLE/SDF MOCLDY    69  61  75 CALM      30.02F
LOUISVILLE/LOU MOCLDY    66  61  84 CALM      30.03F
FORT KNOX      PTCLDY    61  60  96 CALM      30.03S
$$

KYZ035>037-039>044-047>052-055>060-089>105-301000-
NORTHEAST KENTUCKY

CITY           SKY/WX    TMP DP  RH WIND       PRES   REMARKS
LEXINGTON      PTCLDY    67  63  87 CALM      30.04S
COVINGTON      CLOUDY    66  64  93 S3        30.03F
FRANKFORT      CLOUDY    66  62  87 CALM      30.02F
$$

KYZ054-064>069-076>088-106>120-301000-
SOUTHEAST KENTUCKY

CITY           SKY/WX    TMP DP  RH WIND       PRES   REMARKS
JACKSON        MOCLDY    65  62  90 W3        30.08R
LONDON         PTCLDY    64  62  93 S3        30.06R
SOMERSET       CLOUDY    66  66 100 CALM      30.06F
MIDDLESBORO    FOG       60  60 100 CALM      30.08S VSB 3/4
MONTICELLO     CLOUDY    66  65  96 NE7       30.07S
$$






000
ASUS43 KLMK 300810
RWRKY
KENTUCKY REGIONAL WEATHER ROUNDUP
NATIONAL WEATHER SERVICE LOUISVILLE KY
400 AM EDT MON MAY 30 2016

NOTE "FAIR" INDICATES FEW OR NO CLOUDS BELOW 12,000 FEET
WITH NO SIGNIFICANT WEATHER AND/OR OBSTRUCTIONS TO VISIBILITY.

KYZ001>023-026-027-061>063-070>075-300900-
WESTERN AND SOUTH CENTRAL KENTUCKY

CITY           SKY/WX    TMP DP  RH WIND       PRES   REMARKS
PADUCAH        CLEAR     63  60  90 CALM      30.04S
HENDERSON      CLEAR     64  59  82 CALM      30.03S
OWENSBORO      MOCLDY    67  67 100 CALM      30.04S
HOPKINSVILLE   PTCLDY    70  65  83 N3        30.03F
BOWLING GREEN  PTCLDY    68  62  81 CALM      30.04F
GLASGOW        PTCLDY    65  65 100 CALM      30.04F
$$

KYZ024-025-028>034-038-045-046-053-300900-
NORTH CENTRAL KENTUCKY

CITY           SKY/WX    TMP DP  RH WIND       PRES   REMARKS
LOUISVILLE/SDF CLOUDY    71  60  68 CALM      30.03S
LOUISVILLE/LOU PTCLDY    70  62  76 CALM      30.04R
FORT KNOX      CLOUDY    63  61  93 CALM      30.03S
$$

KYZ035>037-039>044-047>052-055>060-089>105-300900-
NORTHEAST KENTUCKY

CITY           SKY/WX    TMP DP  RH WIND       PRES   REMARKS
LEXINGTON      PTCLDY    66  63  90 CALM      30.04S
COVINGTON      CLOUDY    67  64  90 S6        30.04R
FRANKFORT      MOCLDY    67  62  84 CALM      30.03R
$$

KYZ054-064>069-076>088-106>120-300900-
SOUTHEAST KENTUCKY

CITY           SKY/WX    TMP DP  RH WIND       PRES   REMARKS
JACKSON        PTCLDY    65  62  90 CALM      30.06S
LONDON         CLOUDY    65  62  90 CALM      30.05S
SOMERSET       RAIN      64  64 100 CALM      30.07R
MIDDLESBORO    FOG       60  60 100 CALM      30.08S VSB 1/4
MONTICELLO     LGT RAIN  69  66  90 N14       30.07R
$$






000
ASUS43 KLMK 300710
RWRKY
KENTUCKY REGIONAL WEATHER ROUNDUP
NATIONAL WEATHER SERVICE LOUISVILLE KY
300 AM EDT MON MAY 30 2016

NOTE "FAIR" INDICATES FEW OR NO CLOUDS BELOW 12,000 FEET
WITH NO SIGNIFICANT WEATHER AND/OR OBSTRUCTIONS TO VISIBILITY.

KYZ001>023-026-027-061>063-070>075-300800-
WESTERN AND SOUTH CENTRAL KENTUCKY

CITY           SKY/WX    TMP DP  RH WIND       PRES   REMARKS
PADUCAH        PTCLDY    64  60  87 CALM      30.04S
HENDERSON      MOCLDY    64  61  88 SW3       30.03S
OWENSBORO      CLEAR     67  67 100 CALM      30.04S
HOPKINSVILLE   CLEAR     71  65  80 W3        30.04F
BOWLING GREEN  CLOUDY    70  63  78 CALM      30.05R
GLASGOW        CLOUDY    66  66 100 CALM      30.05R
$$

KYZ024-025-028>034-038-045-046-053-300800-
NORTH CENTRAL KENTUCKY

CITY           SKY/WX    TMP DP  RH WIND       PRES   REMARKS
LOUISVILLE/SDF CLOUDY    71  61  70 SW3       30.03R
LOUISVILLE/LOU CLOUDY    69  62  78 CALM      30.03R
FORT KNOX      CLOUDY    64  61  90 CALM      30.03R
$$

KYZ035>037-039>044-047>052-055>060-089>105-300800-
NORTHEAST KENTUCKY

CITY           SKY/WX    TMP DP  RH WIND       PRES   REMARKS
LEXINGTON      CLOUDY    70  64  81 CALM      30.04R
COVINGTON      MOCLDY    69  65  86 CALM      30.03S
FRANKFORT      CLOUDY    65  61  87 CALM      30.02S
$$

KYZ054-064>069-076>088-106>120-300800-
SOUTHEAST KENTUCKY

CITY           SKY/WX    TMP DP  RH WIND       PRES   REMARKS
JACKSON        MOCLDY    69  64  84 NW6       30.06S
LONDON         MOCLDY    66  62  87 CALM      30.05S
SOMERSET       CLOUDY    63  63 100 CALM      30.06R
MIDDLESBORO    CLOUDY    60  60 100 CALM      30.07F FOG
MONTICELLO     MOSUNNY   66  65  96 NE8       30.06S
$$






000
ASUS43 KLMK 300702
RWRKY
KENTUCKY REGIONAL WEATHER ROUNDUP
NATIONAL WEATHER SERVICE LOUISVILLE KY
300 AM EDT MON MAY 30 2016

NOTE "FAIR" INDICATES FEW OR NO CLOUDS BELOW 12,000 FEET
WITH NO SIGNIFICANT WEATHER AND/OR OBSTRUCTIONS TO VISIBILITY.

KYZ001>023-026-027-061>063-070>075-300800-
WESTERN AND SOUTH CENTRAL KENTUCKY

CITY           SKY/WX    TMP DP  RH WIND       PRES   REMARKS
PADUCAH        PTCLDY    64  60  87 CALM      30.04S
HENDERSON      MOCLDY    64  61  88 SW3       30.03S
OWENSBORO      CLEAR     67  67 100 CALM      30.04S
HOPKINSVILLE   NOT AVBL
BOWLING GREEN  CLOUDY    70  63  78 CALM      30.05R
GLASGOW        NOT AVBL
$$

KYZ024-025-028>034-038-045-046-053-300800-
NORTH CENTRAL KENTUCKY

CITY           SKY/WX    TMP DP  RH WIND       PRES   REMARKS
LOUISVILLE/SDF CLOUDY    71  61  70 SW3       30.03R
LOUISVILLE/LOU CLOUDY    69  62  78 CALM      30.03R
FORT KNOX      CLOUDY    64  61  90 CALM      30.03R
$$

KYZ035>037-039>044-047>052-055>060-089>105-300800-
NORTHEAST KENTUCKY

CITY           SKY/WX    TMP DP  RH WIND       PRES   REMARKS
LEXINGTON      CLOUDY    70  64  81 CALM      30.04R
COVINGTON      MOCLDY    69  65  86 CALM      30.03S
FRANKFORT      CLOUDY    65  61  87 CALM      30.02S
$$

KYZ054-064>069-076>088-106>120-300800-
SOUTHEAST KENTUCKY

CITY           SKY/WX    TMP DP  RH WIND       PRES   REMARKS
JACKSON        MOCLDY    69  64  84 NW6       30.06S
LONDON         MOCLDY    66  62  87 CALM      30.05S
SOMERSET       NOT AVBL
MIDDLESBORO    CLOUDY    60  60 100 CALM      30.07F FOG
MONTICELLO     MOSUNNY   66  65  96 NE8       30.06S
$$






000
ASUS43 KLMK 300610
RWRKY
KENTUCKY REGIONAL WEATHER ROUNDUP
NATIONAL WEATHER SERVICE LOUISVILLE KY
200 AM EDT MON MAY 30 2016

NOTE "FAIR" INDICATES FEW OR NO CLOUDS BELOW 12,000 FEET
WITH NO SIGNIFICANT WEATHER AND/OR OBSTRUCTIONS TO VISIBILITY.

KYZ001>023-026-027-061>063-070>075-300700-
WESTERN AND SOUTH CENTRAL KENTUCKY

CITY           SKY/WX    TMP DP  RH WIND       PRES   REMARKS
PADUCAH        PTCLDY    64  60  87 CALM      30.04F
HENDERSON      CLEAR     66  61  82 CALM      30.03S
OWENSBORO      PTCLDY    69  68  97 CALM      30.04S
HOPKINSVILLE   CLEAR     71  65  81 CALM      30.05R
BOWLING GREEN  CLOUDY    72  63  73 NW3       30.04S
GLASGOW        MOCLDY    66  66 100 CALM      30.04S
$$

KYZ024-025-028>034-038-045-046-053-300700-
NORTH CENTRAL KENTUCKY

CITY           SKY/WX    TMP DP  RH WIND       PRES   REMARKS
LOUISVILLE/SDF CLOUDY    73  59  61 CALM      30.02S
LOUISVILLE/LOU PTCLDY    70  61  73 CALM      30.02F
FORT KNOX      MOCLDY    64  62  90 CALM      30.02S
$$

KYZ035>037-039>044-047>052-055>060-089>105-300700-
NORTHEAST KENTUCKY

CITY           SKY/WX    TMP DP  RH WIND       PRES   REMARKS
LEXINGTON      CLEAR     70  64  81 W3        30.03F
COVINGTON      MOCLDY    66  64  93 SE5       30.03S
FRANKFORT      PTCLDY    69  62  78 CALM      30.02S
$$

KYZ054-064>069-076>088-106>120-300700-
SOUTHEAST KENTUCKY

CITY           SKY/WX    TMP DP  RH WIND       PRES   REMARKS
JACKSON        PTCLDY    69  62  78 CALM      30.06S
LONDON         CLEAR     66  62  87 CALM      30.05F
SOMERSET       CLEAR     64  64 100 CALM      30.05F
MIDDLESBORO    CLEAR     60  60  99 CALM      30.08F
MONTICELLO     PTCLDY    67  65  93 NE8       30.06F
$$






000
ASUS43 KLMK 300602
RWRKY
KENTUCKY REGIONAL WEATHER ROUNDUP
NATIONAL WEATHER SERVICE LOUISVILLE KY
200 AM EDT MON MAY 30 2016

NOTE "FAIR" INDICATES FEW OR NO CLOUDS BELOW 12,000 FEET
WITH NO SIGNIFICANT WEATHER AND/OR OBSTRUCTIONS TO VISIBILITY.

KYZ001>023-026-027-061>063-070>075-300700-
WESTERN AND SOUTH CENTRAL KENTUCKY

CITY           SKY/WX    TMP DP  RH WIND       PRES   REMARKS
PADUCAH        PTCLDY    64  60  87 CALM      30.04F
HENDERSON      CLEAR     66  61  82 CALM      30.03S
OWENSBORO      PTCLDY    69  68  97 CALM      30.04S
HOPKINSVILLE   NOT AVBL
BOWLING GREEN  CLOUDY    72  63  73 NW3       30.04S
GLASGOW        NOT AVBL
$$

KYZ024-025-028>034-038-045-046-053-300700-
NORTH CENTRAL KENTUCKY

CITY           SKY/WX    TMP DP  RH WIND       PRES   REMARKS
LOUISVILLE/SDF CLOUDY    73  59  61 CALM      30.02S
LOUISVILLE/LOU PTCLDY    70  61  73 CALM      30.02F
FORT KNOX      NOT AVBL
$$

KYZ035>037-039>044-047>052-055>060-089>105-300700-
NORTHEAST KENTUCKY

CITY           SKY/WX    TMP DP  RH WIND       PRES   REMARKS
LEXINGTON      CLEAR     70  64  81 W3        30.03F
COVINGTON      MOCLDY    66  64  93 SE5       30.03S
FRANKFORT      PTCLDY    69  62  78 CALM      30.02S
$$

KYZ054-064>069-076>088-106>120-300700-
SOUTHEAST KENTUCKY

CITY           SKY/WX    TMP DP  RH WIND       PRES   REMARKS
JACKSON        PTCLDY    69  62  78 CALM      30.06S
LONDON         CLEAR     66  62  87 CALM      30.05F
SOMERSET       NOT AVBL
MIDDLESBORO    CLEAR     60  60  99 CALM      30.08F
MONTICELLO     PTCLDY    67  65  93 NE8       30.06F
$$






000
ASUS43 KLMK 300510
RWRKY
KENTUCKY REGIONAL WEATHER ROUNDUP
NATIONAL WEATHER SERVICE LOUISVILLE KY
100 AM EDT MON MAY 30 2016

NOTE "FAIR" INDICATES FEW OR NO CLOUDS BELOW 12,000 FEET
WITH NO SIGNIFICANT WEATHER AND/OR OBSTRUCTIONS TO VISIBILITY.

KYZ001>023-026-027-061>063-070>075-300600-
WESTERN AND SOUTH CENTRAL KENTUCKY

CITY           SKY/WX    TMP DP  RH WIND       PRES   REMARKS
PADUCAH        CLEAR     65  61  87 CALM      30.05R
HENDERSON      MOCLDY    68  61  77 CALM      30.03S
OWENSBORO      MOCLDY    71  69  93 CALM      30.04F
HOPKINSVILLE   PTCLDY    71  66  82 W3        30.04S
BOWLING GREEN  MOCLDY    71  65  81 CALM      30.04F
GLASGOW        CLOUDY    67  67  99 CALM      30.04S
$$

KYZ024-025-028>034-038-045-046-053-300600-
NORTH CENTRAL KENTUCKY

CITY           SKY/WX    TMP DP  RH WIND       PRES   REMARKS
LOUISVILLE/SDF MOCLDY    72  59  63 W6        30.02S
LOUISVILLE/LOU PTCLDY    74  60  61 CALM      30.03S
FORT KNOX      PTCLDY    66  61  85 W6        30.02F
$$

KYZ035>037-039>044-047>052-055>060-089>105-300600-
NORTHEAST KENTUCKY

CITY           SKY/WX    TMP DP  RH WIND       PRES   REMARKS
LEXINGTON      CLEAR     71  65  81 SW3       30.04S
COVINGTON      PTCLDY    67  65  93 SE3       30.03R
FRANKFORT      CLEAR     72  62  71 NW3       30.02S
$$

KYZ054-064>069-076>088-106>120-300600-
SOUTHEAST KENTUCKY

CITY           SKY/WX    TMP DP  RH WIND       PRES   REMARKS
JACKSON        CLEAR     70  62  76 CALM      30.06S
LONDON         CLEAR     67  63  87 CALM      30.06S
SOMERSET       CLEAR     64  64 100 CALM      30.06F
MIDDLESBORO    CLEAR     62  62 100 CALM      30.09S
MONTICELLO     PTCLDY    67  66  97 NE8       30.07S FOG
$$






000
ASUS43 KLMK 300502
RWRKY
KENTUCKY REGIONAL WEATHER ROUNDUP
NATIONAL WEATHER SERVICE LOUISVILLE KY
100 AM EDT MON MAY 30 2016

NOTE "FAIR" INDICATES FEW OR NO CLOUDS BELOW 12,000 FEET
WITH NO SIGNIFICANT WEATHER AND/OR OBSTRUCTIONS TO VISIBILITY.

KYZ001>023-026-027-061>063-070>075-300600-
WESTERN AND SOUTH CENTRAL KENTUCKY

CITY           SKY/WX    TMP DP  RH WIND       PRES   REMARKS
PADUCAH        CLEAR     65  61  87 CALM      30.05R
HENDERSON      MOCLDY    68  61  77 CALM      30.03S
OWENSBORO      MOCLDY    71  69  93 CALM      30.04F
HOPKINSVILLE   NOT AVBL
BOWLING GREEN  MOCLDY    71  65  81 CALM      30.04F
GLASGOW        NOT AVBL
$$

KYZ024-025-028>034-038-045-046-053-300600-
NORTH CENTRAL KENTUCKY

CITY           SKY/WX    TMP DP  RH WIND       PRES   REMARKS
LOUISVILLE/SDF MOCLDY    72  59  63 W6        30.02S
LOUISVILLE/LOU PTCLDY    74  60  61 CALM      30.03S
FORT KNOX      PTCLDY    66  61  85 W6        30.02F
$$

KYZ035>037-039>044-047>052-055>060-089>105-300600-
NORTHEAST KENTUCKY

CITY           SKY/WX    TMP DP  RH WIND       PRES   REMARKS
LEXINGTON      CLEAR     71  65  81 SW3       30.04S
COVINGTON      PTCLDY    67  65  93 SE3       30.03R
FRANKFORT      CLEAR     72  62  71 NW3       30.02S
$$

KYZ054-064>069-076>088-106>120-300600-
SOUTHEAST KENTUCKY

CITY           SKY/WX    TMP DP  RH WIND       PRES   REMARKS
JACKSON        CLEAR     70  62  76 CALM      30.06S
LONDON         CLEAR     67  63  87 CALM      30.06S
SOMERSET       NOT AVBL
MIDDLESBORO    CLEAR     62  62 100 CALM      30.09S
MONTICELLO     PTCLDY    67  66  97 NE8       30.07S FOG
$$






    US Dept of Commerce
    National Oceanic and Atmospheric Administration
    National Weather Service
    1325 East West Highway
    Silver Spring, MD 20910
    Page Author: NWS Internet Services Team
Disclaimer
Information Quality
Credits
Glossary
Privacy Policy
Freedom of Information Act (FOIA)
About Us
Career Opportunities